Location: Unspecified
(0.0000°N, 0.0000°E)
Time: 16:24:24
(UTC+00:00)

Envisat - Pass Details

Date: 29 September 2021
Orbit: 764 x 766 km, 98.2° (Epoch: 22 October)

Event Time Altitude Azimuth Distance (km) Brightness Sun altitude
Rises 05:00:10 0° 4° (N) 3,212 6.2 -12.5°
Reaches altitude 10° 05:02:30 10° 360° (N) 2,289 5.4 -12.0°
Maximum altitude 05:07:26 56° 282° (WNW) 900 3.0 -10.7°
Drops below altitude 10° 05:12:23 10° 204° (SSW) 2,299 5.3 -9.5°
Sets 05:14:44 0° 200° (SSW) 3,227 6.1 -8.9°
